Weather History for CAAW - November, 2013

Change the Weather History Date:

Friday, November 22, 2013

  Actual Average Record
Temperature  
Mean Temperature 42 °F -  
Max Temperature 50 °F - - ()
Min Temperature 35 °F - - ()
Degree Days  
Heating Degree Days 22    
Moisture  
Dew Point 27 °F    
Average Humidity 55    
Maximum Humidity 80    
Minimum Humidity 32    
Precipitation  
Precipitation 0.00 in - - ()
Sea Level Pressure  
Sea Level Pressure 30.07 in    
Wind  
Wind Speed 6 mph ()    
Max Wind Speed 12 mph    
Max Gust Speed -    
T = Trace of Precipitation, MM = Missing Value Source: Averaged Metar Reports

Daily Weather History Graph

Daily Weather History Graph

Search for Another Location

Airport or City:

Trip Planner

Search our weather history database for the weather conditions in past years. The results will help you decide how hot, cold, wet, or windy it might be!

Date:

Astronomy

Nov. 22, 2013 Rise Set
Actual Time 7:20 AM AST 4:39 PM AST
Civil Twilight 6:47 AM AST 5:12 PM AST
Nautical Twilight 6:12 AM AST 5:47 PM AST
Astronomical Twilight 5:37 AM AST 6:22 PM AST
Moon 9:11 PM AST (11/22) 10:58 AM AST (11/22)
Length of Visible Light 10h 24m
Length of Day
9h 19m
Waning Gibbous, 78% of the Moon is Illuminated
Nov 22
Waning Gibbous
Nov 25
Last Quarter
Dec 2
New
Dec 9
First Quarter
Dec 17
Full

Hourly Weather History & Observations

Time (AST) Temp. Windchill Dew Point Humidity Pressure Visibility Wind Dir Wind Speed Gust Speed Precip Events Conditions
12:00 AM 37.9 °F 31.5 °F 20.5 °F 49% 30.26 in - NNW 9.2 mph - N/A   Unknown
1:00 AM 37.6 °F 31.0 °F 21.9 °F 53% 30.24 in - NW 9.2 mph - N/A   Unknown
2:00 AM 37 °F - 22 °F 43% 30.24 in - NW 10.4 mph - -  
2:00 AM 37.2 °F 29.6 °F 22.5 °F 55% 30.24 in - NW 11.5 mph - N/A   Unknown
3:00 AM 37.0 °F 30.4 °F 21.7 °F 54% 30.22 in - NW 9.2 mph - N/A   Unknown
4:00 AM 37.0 °F 29.3 °F 22.1 °F 55% 30.21 in - NW 11.5 mph - N/A   Unknown
5:00 AM 36.7 °F 30.5 °F 22.3 °F 56% 30.20 in - NW 8.1 mph - N/A   Unknown
6:00 AM 35.4 °F 29.7 °F 22.3 °F 59% 30.19 in - NNW 6.9 mph - N/A   Unknown
7:00 AM 35.6 °F 29.2 °F 22.6 °F 59% 30.19 in - WNW 8.1 mph - N/A   Unknown
8:00 AM 37 °F - 22 °F 43% 30.18 in - NNW 8.1 mph - -  
8:00 AM 37.0 °F 31.0 °F 22.5 °F 56% 30.18 in - NNW 8.1 mph - N/A   Unknown
9:00 AM 40.3 °F 34.9 °F 23.0 °F 50% 30.16 in - NW 8.1 mph - N/A   Unknown
10:00 AM 43.5 °F 40.1 °F 22.8 °F 44% 30.14 in - NW 5.8 mph - N/A   Unknown
11:00 AM 46.8 °F - 24.1 °F 41% 30.11 in - West 4.6 mph - N/A   Unknown
12:00 PM 49.1 °F - 22.1 °F 35% 30.07 in - NW 3.5 mph - N/A   Unknown
1:00 PM 49.1 °F - 21.9 °F 34% 30.03 in - NW 1.2 mph - N/A   Unknown
2:00 PM 50 °F - 29 °F 32% 29.99 in - WSW 4.6 mph - -  
2:00 PM 50.4 °F - 29.1 °F 44% 29.99 in - WSW 4.6 mph - N/A   Unknown
3:00 PM 47.3 °F - 27.0 °F 45% 29.98 in - WSW 5.8 mph - N/A   Unknown
4:00 PM 46.8 °F - 30.6 °F 53% 29.97 in - West 5.8 mph - N/A   Unknown
5:00 PM 44.1 °F 40.8 °F 33.4 °F 66% 29.95 in - WSW 5.8 mph - N/A   Unknown
6:00 PM 42.8 °F 40.1 °F 34.7 °F 73% 29.93 in - West 4.6 mph - N/A   Unknown
7:00 PM 41.9 °F 40.0 °F 34.2 °F 74% 29.90 in - NW 3.5 mph - N/A   Unknown
8:00 PM 41 °F - 34 °F 68% 29.88 in - WSW 1.2 mph - -  
8:00 PM 41.4 °F - 34.0 °F 75% 29.89 in - West 1.2 mph - N/A   Unknown
9:00 PM 40.1 °F - 34.3 °F 80% 29.86 in - WSW 1.2 mph - N/A   Unknown
10:00 PM 41.0 °F - 34.7 °F 78% 29.83 in - SW 2.3 mph - N/A   Unknown
11:00 PM 41.0 °F 38.0 °F 31.5 °F 69% 29.80 in - NW 4.6 mph - N/A   Unknown